[Date Prev][Date Next][Thread Prev][Thread Next] - [Date Index][Thread Index][Author Index]

2 Line ISS Keps 12-26



ISS
1 25544U 98067A   04026.45630787  .00049786  00000-0  46984-3 0   744
2 25544  51.6300 332.2298 0007677  86.3055  54.7873 15.66494663295921


----
Via the sarex mailing list at AMSAT.ORG courtesy of AMSAT-NA.
To unsubscribe, send "unsubscribe sarex" to Majordomo@amsat.org



AMSAT Top AMSAT Home